Content
SEND FEEDBACK

Daily
Averages
Monthly
Summary
France

ALLEVES, FRANCE


Home > Europe > France
Elevation: 6791 feet     Latitude: 45 48N     Longitude: 006 06E

WEATHER
 
SELECT A DAY
Number of Records: 312,840;   Date Range: 7/1/96 - 12/20/14
 
SHARE

PRINT THIS DATA

[ ← Previous Day ]
WEATHER ALMANAC - FEBRUARY 13, 2013
[ Next Day → ]
[ °C ]   °F
Weather ElementAverageHighLow
Temperature31.8 °F35.6 °F (2:50 pm)28 °F (11:00 pm)
Dewpoint23.8 °F30.2 °F (12:20 am)17.6 °F (11:50 pm)
Humidity69.5 %93 % (12:20 am)49 % (2:00 pm)
Barometer30.09 in30.27 in (11:00 pm)29.92 in (12:20 am)
Wind Speed7.4 mph12.7 mph (9:00 am)
Weather ElementAverage
Visibility5.5 mi
Wind DirectionNNE (36.2 °)

Weather ElementTotal
Precipitation---
Heating Degree Days33.2 (Base 65)
Averaged from 66 records on February 13, 2013
WEATHER CONDITIONS BREAKOUT
WIND DIRECTION BREAKOUT
WEATHER BY HOUR - FEBRUARY 13, 2013
[ °C ]   °F
Local TimeTemperatureDewpointHumidityBarometerVisibilityWind DirectionWind SpeedGust SpeedPrecipitationEventsConditions
12:20 AM32.0 °F30.2 °F93 %29.92 in3.7 miNNE (30°)6.9 mphMostly Cloudy
12:50 AM32.0 °F28.4 °F87 %29.92 in3.7 miNNE (20°)5.8 mphMostly Cloudy
1:00 AM32.0 °F28.0 °F78 %30.00 in4.0 miNorth (10°)5.8 mphMist
1:20 AM32.0 °F28.4 °F87 %29.92 in3.7 miNNE (20°)5.8 mphMostly Cloudy
1:50 AM32.0 °F28.4 °F87 %29.95 in3.7 miNNE (30°)6.9 mphMostly Cloudy
2:00 AM33.0 °F27.0 °F71 %30.01 inNNE (30°)9.2 mph
2:50 AM32.0 °F28.4 °F87 %29.95 in4.3 miNE (40°)10.4 mphMostly Cloudy
3:00 AM32.0 °F26.0 °F72 %30.02 inNE (40°)11.5 mph
3:20 AM32.0 °F26.6 °F80 %29.95 in4.3 miNE (40°)10.4 mphMostly Cloudy
3:50 AM32.0 °F26.6 °F80 %29.95 in4.3 miNNE (30°)10.4 mphMostly Cloudy
4:20 AM32.0 °F26.6 °F80 %29.95 in4.3 miNE (50°)11.5 mphMostly Cloudy
4:50 AM32.0 °F24.8 °F75 %29.98 in4.3 miNE (40°)10.4 mphMostly Cloudy
5:00 AM32.0 °F25.0 °F65 %30.04 inNE (40°)11.5 mph
5:20 AM32.0 °F24.8 °F75 %29.98 in5.0 miNE (40°)10.4 mphMostly Cloudy
5:50 AM32.0 °F24.8 °F75 %29.98 in5.0 miNE (40°)9.2 mphMostly Cloudy
6:00 AM32.0 °F25.0 °F65 %30.06 inNE (40°)9.2 mph
6:20 AM32.0 °F24.8 °F75 %29.98 in5.0 miNE (40°)6.9 mphMostly Cloudy
6:50 AM32.0 °F26.6 °F80 %30.01 in5.0 miVariable3.5 mphMostly Cloudy
7:00 AM32.0 °F25.0 °F66 %30.08 in5.0 miNNE (30°)5.8 mphMist
7:20 AM32.0 °F26.6 °F80 %30.01 in5.0 miNE (50°)10.4 mphMostly Cloudy
7:50 AM30.2 °F24.8 °F80 %30.04 in5.0 miNE (50°)10.4 mphMostly Cloudy
8:00 AM31.0 °F24.0 °F68 %30.11 inNE (50°)11.5 mph
8:20 AM30.2 °F24.8 °F80 %30.04 in5.0 miENE (60°)10.4 mphMostly Cloudy
8:50 AM30.2 °F24.8 °F80 %30.06 in5.0 miNE (50°)9.2 mphMostly Cloudy
9:00 AM31.0 °F24.0 °F66 %30.13 inNE (50°)12.7 mph
9:20 AM30.2 °F24.8 °F80 %30.06 in5.0 miNE (50°)10.4 mphMostly Cloudy
9:50 AM32.0 °F24.8 °F75 %30.06 in5.6 miNE (40°)9.2 mphMostly Cloudy
10:20 AM32.0 °F24.8 °F75 %30.06 in5.6 miNE (40°)5.8 mphMostly Cloudy
10:50 AM32.0 °F24.8 °F75 %30.09 in5.6 miNorth (10°)5.8 mphMostly Cloudy
11:00 AM31.0 °F23.0 °F63 %30.16 inNE (40°)6.9 mph
11:20 AM32.0 °F24.8 °F75 %30.09 in5.6 miENE (60°)5.8 mphMostly Cloudy
11:50 AM32.0 °F24.8 °F75 %30.09 in6.2 miNE (50°)5.8 mphMostly Cloudy
12:00 PM33.0 °F23.0 °F54 %30.17 inENE (60°)10.4 mph
12:20 PM32.0 °F23.0 °F69 %30.09 in6.2 miNE (50°)10.4 mphMostly Cloudy
12:50 PM33.8 °F24.8 °F70 %30.09 in6.2 miNE (40°)8.1 mphMostly Cloudy
1:00 PM33.0 °F22.0 °F53 %30.18 in6.0 miNE (40°)8.1 mphHaze
1:20 PM32.0 °F23.0 °F69 %30.09 in6.2 miNE (40°)6.9 mphMostly Cloudy
1:50 PM33.8 °F23.0 °F65 %30.09 in6.2 miNE (40°)6.9 mphMostly Cloudy
2:00 PM33.0 °F21.0 °F49 %30.17 inNE (40°)5.8 mph
2:20 PM33.8 °F23.0 °F65 %30.09 in6.2 miVariable3.5 mphMostly Cloudy
2:50 PM35.6 °F23.0 °F60 %30.09 in6.2 miVariable3.5 mphMostly Cloudy
3:00 PM33.0 °F21.0 °F49 %30.17 inENE (70°)4.6 mph
3:20 PM35.6 °F23.0 °F60 %30.12 in6.2 miEast (80°)5.8 mphMostly Cloudy
3:50 PM33.8 °F23.0 °F65 %30.12 in6.2 miENE (70°)5.8 mphMostly Cloudy
4:20 PM33.8 °F23.0 °F65 %30.12 in6.2 miNE (50°)6.9 mphMostly Cloudy
4:50 PM33.8 °F23.0 °F65 %30.12 in6.2 miNE (50°)5.8 mphMostly Cloudy
5:00 PM33.0 °F23.0 °F54 %30.20 inENE (60°)8.1 mph
5:20 PM33.8 °F24.8 °F70 %30.12 in6.2 miNE (40°)5.8 mphMostly Cloudy
5:50 PM33.8 °F23.0 °F65 %30.15 in6.2 miENE (60°)6.9 mphMostly Cloudy
6:00 PM33.0 °F22.0 °F52 %30.22 inENE (60°)5.8 mph
6:20 PM32.0 °F23.0 °F69 %30.15 in6.2 miNE (40°)8.1 mphMostly Cloudy
6:50 PM32.0 °F23.0 °F69 %30.15 in6.2 miNE (50°)9.2 mphMostly Cloudy
7:00 PM32.0 °F22.0 °F54 %30.24 in9.0 miNNE (20°)8.1 mphHaze
7:20 PM32.0 °F23.0 °F69 %30.15 in6.2 miNNE (20°)5.8 mphMostly Cloudy
7:50 PM30.2 °F21.2 °F69 %30.18 in6.2 miNNE (20°)5.8 mphMostly Cloudy
8:00 PM31.0 °F21.0 °F54 %30.25 inNorth (10°)6.9 mph
8:20 PM30.2 °F21.2 °F69 %30.18 in6.2 miNorth (10°)4.6 mphMostly Cloudy
8:50 PM30.2 °F21.2 °F69 %30.18 in6.2 miNorth (10°)5.8 mphMostly Cloudy
9:00 PM30.0 °F20.0 °F55 %30.26 inNorth5.8 mph
9:20 PM30.2 °F21.2 °F69 %30.18 in6.2 miNorth (10°)5.8 mphMostly Cloudy
9:50 PM30.2 °F21.2 °F69 %30.18 in6.2 miNNE (20°)4.6 mphMostly Cloudy
10:20 PM28.4 °F19.4 °F69 %30.18 in6.2 miNorth (10°)4.6 mphMostly Cloudy
10:50 PM28.4 °F19.4 °F69 %30.18 in6.2 miNNE (20°)4.6 mphMostly Cloudy
11:00 PM28.0 °F18.0 °F54 %30.27 inNorth (10°)4.6 mph
11:20 PM28.4 °F19.4 °F69 %30.18 in6.2 miNE (40°)3.5 mphMostly Cloudy
11:50 PM28.4 °F17.6 °F64 %30.18 in6.2 miNE (40°)4.6 mphMostly Cloudy
Hourly data recorded from LFLP, located miles away from Alleves, France







STORIES FROM OUR PARTNERS